NKS114 KATL-KFLL

Flight info

Callsign NKS114
Flight time N/A
Altitude 34000
Route SMLTZ3 WALET DCT ZPLEN TEEKY3
Aircraft A20N/M-SDE2E3FGHIRWXY/LB1

Departure

Time 2026-05-03 22:27
Airport Hartsfield Jackson Atlanta International Airport (KATL)

Arrival

Time N/A
Airport Fort Lauderdale Hollywood International Airport (KFLL)
Time Latitude Longitude Altitude Speed Heading
2026-05-03 22:26 33.66829 -84.50460 7018 ft 248 kts 284°
2026-05-03 22:27 33.66791 -84.52932 7187 ft 312 kts 260°
2026-05-03 22:27 33.66021 -84.55370 7243 ft 354 kts 246°
2026-05-03 22:27 33.64911 -84.57885 7255 ft 327 kts 244°
2026-05-03 22:27 33.64036 -84.60243 7264 ft 302 kts 253°
2026-05-03 22:28 33.63412 -84.62526 7521 ft 273 kts 255°
2026-05-03 22:28 33.62878 -84.64556 8002 ft 236 kts 255°
2026-05-03 22:28 33.62395 -84.66387 8639 ft 238 kts 255°
2026-05-03 22:28 33.61565 -84.68258 9322 ft 273 kts 232°
2026-05-03 22:29 33.59957 -84.69677 10014 ft 307 kts 207°
2026-05-03 22:29 33.57765 -84.70283 10636 ft 341 kts 185°
2026-05-03 22:29 33.55312 -84.70075 11271 ft 368 kts 174°
2026-05-03 22:29 33.52799 -84.69407 11878 ft 361 kts 167°
2026-05-03 22:30 33.50465 -84.68612 12494 ft 348 kts 169°
2026-05-03 22:30 33.48124 -84.67940 13137 ft 345 kts 171°
2026-05-03 22:30 33.45786 -84.67281 13793 ft 347 kts 171°
2026-05-03 22:30 33.43421 -84.66600 14397 ft 351 kts 169°
2026-05-03 22:31 33.41151 -84.65429 14986 ft 363 kts 150°
2026-05-03 22:31 33.39227 -84.63433 15610 ft 371 kts 139°
2026-05-03 22:31 33.37438 -84.61171 16235 ft 376 kts 137°
2026-05-03 22:31 33.35666 -84.58855 16868 ft 380 kts 137°
2026-05-03 22:32 33.33885 -84.56490 17519 ft 385 kts 137°
2026-05-03 22:32 33.32062 -84.54028 18185 ft 391 kts 137°
2026-05-03 22:32 33.30291 -84.51601 18790 ft 396 kts 136°
2026-05-03 22:32 33.28480 -84.49092 19382 ft 400 kts 136°
2026-05-03 22:33 33.26693 -84.46595 19977 ft 404 kts 136°
2026-05-03 22:33 33.24880 -84.44032 20188 ft 397 kts 136°
2026-05-03 22:33 33.23087 -84.41619 20007 ft 381 kts 141°
2026-05-03 22:33 33.21282 -84.39384 19855 ft 366 kts 141°
2026-05-03 22:34 33.19537 -84.37223 20087 ft 368 kts 141°
2026-05-03 22:34 33.17673 -84.34940 20144 ft 398 kts 141°
2026-05-03 22:34 33.15705 -84.32555 20136 ft 405 kts 141°
2026-05-03 22:34 33.13725 -84.30159 20131 ft 407 kts 141°
2026-05-03 22:35 33.11743 -84.27756 20133 ft 407 kts 141°
2026-05-03 22:35 33.09757 -84.25343 20128 ft 408 kts 141°
2026-05-03 22:35 33.07793 -84.22955 20122 ft 408 kts 141°
2026-05-03 22:35 33.05811 -84.20540 20122 ft 408 kts 141°
2026-05-03 22:36 33.03837 -84.18128 20120 ft 408 kts 141°
2026-05-03 22:36 33.01854 -84.15698 20119 ft 408 kts 141°
2026-05-03 22:36 32.99878 -84.13275 20120 ft 408 kts 141°
2026-05-03 22:36 32.97898 -84.10845 20117 ft 408 kts 141°
2026-05-03 22:37 32.95922 -84.08411 20116 ft 408 kts 141°
2026-05-03 22:37 32.93991 -84.05929 20117 ft 411 kts 138°
2026-05-03 22:37 32.92213 -84.03240 20113 ft 416 kts 133°
2026-05-03 22:37 32.90542 -84.00417 20114 ft 416 kts 131°
2026-05-03 22:38 32.88916 -83.97628 20116 ft 417 kts 131°
2026-05-03 22:38 32.87273 -83.94797 20114 ft 417 kts 131°
2026-05-03 22:38 32.85617 -83.91942 20187 ft 420 kts 131°
2026-05-03 22:38 32.83886 -83.89133 20839 ft 420 kts 137°
2026-05-03 22:39 32.81917 -83.86586 21767 ft 417 kts 143°
2026-05-03 22:39 32.79862 -83.84157 22633 ft 416 kts 147°
2026-05-03 22:39 32.77532 -83.82195 23455 ft 405 kts 161°
2026-05-03 22:39 32.75021 -83.80697 24161 ft 405 kts 165°
2026-05-03 22:40 32.72472 -83.79253 24838 ft 409 kts 165°
2026-05-03 22:40 32.69892 -83.77786 25506 ft 412 kts 165°
2026-05-03 22:40 32.67290 -83.76299 26134 ft 416 kts 165°
2026-05-03 22:40 32.64675 -83.74800 26757 ft 420 kts 165°
2026-05-03 22:41 32.62077 -83.73301 27362 ft 423 kts 165°
2026-05-03 22:41 32.59432 -83.71767 27957 ft 426 kts 165°
2026-05-03 22:41 32.56752 -83.70207 28535 ft 429 kts 165°
2026-05-03 22:41 32.54061 -83.68638 29098 ft 432 kts 165°
2026-05-03 22:42 32.51360 -83.67056 29647 ft 436 kts 165°
2026-05-03 22:42 32.48630 -83.65449 30193 ft 439 kts 165°
2026-05-03 22:42 32.45906 -83.63841 30712 ft 439 kts 165°
2026-05-03 22:42 32.43181 -83.62217 31331 ft 437 kts 165°
2026-05-03 22:43 32.40468 -83.60583 31947 ft 436 kts 165°
2026-05-03 22:43 32.37779 -83.58944 32531 ft 434 kts 165°
2026-05-03 22:43 32.35097 -83.57296 33080 ft 434 kts 165°
2026-05-03 22:43 32.32433 -83.55644 33638 ft 432 kts 165°
2026-05-03 22:44 32.29800 -83.54001 34027 ft 434 kts 165°
2026-05-03 22:44 32.24632 -83.50718 34104 ft 414 kts 165°
2026-05-03 22:45 32.19608 -83.47466 34105 ft 411 kts 165°
2026-05-03 22:45 32.14598 -83.44473 34097 ft 405 kts 168°
2026-05-03 22:46 32.09520 -83.41553 34083 ft 405 kts 168°
2026-05-03 22:46 32.04453 -83.38639 34073 ft 406 kts 168°
2026-05-03 22:47 31.99378 -83.35717 34063 ft 406 kts 168°
2026-05-03 22:47 31.94339 -83.32810 34064 ft 406 kts 168°
2026-05-03 22:48 31.89265 -83.29880 34045 ft 406 kts 168°
2026-05-03 22:48 31.84198 -83.26947 34041 ft 406 kts 168°
2026-05-03 22:49 31.79127 -83.24007 34035 ft 407 kts 168°
2026-05-03 22:49 31.75769 -83.22054 34028 ft 406 kts 168°
2026-05-03 22:51 31.56262 -83.10661 33972 ft 408 kts 168°
2026-05-03 22:52 31.51180 -83.07678 33961 ft 408 kts 168°
2026-05-03 22:52 31.46112 -83.04693 33950 ft 408 kts 168°
2026-05-03 22:53 31.41033 -83.01694 33933 ft 409 kts 168°
2026-05-03 22:53 31.35962 -82.98691 33923 ft 409 kts 168°
2026-05-03 22:54 31.30920 -82.95698 33908 ft 409 kts 168°
2026-05-03 22:54 31.25610 -82.92536 33893 ft 409 kts 168°
2026-05-03 22:55 31.20519 -82.89497 33886 ft 409 kts 168°